�N����,����,�~����,�C��,���x,�C��,����,���ϕ���,�ő�u�ԕ���,�ő厞����,���˗�,�I�_���x,�n�����x,�ő啗���N��,DTYPE
"23/02/19","00:10",0.2,8.4,96.2,1013.0,287.1,0.6,0.9,313.7,0.00,7.9,7.9,"00:06:56",1
"23/02/19","00:20",0.2,8.5,96.2,1012.6,193.7,0.2,0.5,106.0,0.00,8.0,7.6,"00:11:04",1
"23/02/19","00:30",0.0,8.4,96.3,1012.3,294.7,0.7,1.1,320.5,0.00,7.9,7.9,"00:28:32",1
"23/02/19","00:40",0.2,8.5,96.4,1011.9,334.7,1.1,1.7,330.9,0.00,8.0,7.8,"00:36:50",1
"23/02/19","00:50",0.0,8.4,96.5,1012.1,340.4,1.1,1.4,342.7,0.00,7.9,7.8,"00:47:44",1
"23/02/19","01:00",0.2,8.4,96.6,1012.1,345.3,1.3,1.8,342.4,0.00,7.9,7.8,"00:52:56",1
"23/02/19","01:10",0.0,8.5,96.8,1011.9,337.0,1.2,1.4,348.6,0.00,8.1,7.8,"01:03:06",1
"23/02/19","01:20",0.2,8.4,96.8,1011.6,324.8,0.8,1.3,341.1,0.00,8.0,7.7,"01:11:12",1
"23/02/19","01:30",0.0,8.4,96.9,1011.6,285.1,0.5,1.2,325.1,0.00,8.0,7.9,"01:27:30",1
"23/02/19","01:40",0.2,8.4,97.0,1011.2,309.4,0.8,1.2,322.4,0.00,8.0,7.8,"01:34:02",1
"23/02/19","01:50",0.2,8.4,97.1,1011.2,312.4,1.0,1.3,336.1,0.00,8.0,7.7,"01:43:18",1
"23/02/19","02:00",0.2,8.4,97.1,1010.9,290.8,0.2,0.5,355.6,0.00,8.0,7.9,"01:50:12",1
"23/02/19","02:10",0.2,8.4,97.2,1010.7,312.0,0.7,1.1,325.3,0.00,8.0,7.8,"02:07:54",1
"23/02/19","02:20",0.0,8.4,97.3,1010.4,228.9,0.3,0.9,315.5,0.00,8.0,7.7,"02:19:42",1
"23/02/19","02:30",0.0,8.5,97.4,1010.2,306.7,0.7,1.3,309.5,0.00,8.2,7.8,"02:27:46",1
"23/02/19","02:40",0.0,8.5,97.4,1010.0,327.1,0.7,1.3,305.7,0.00,8.2,7.6,"02:30:28",1
"23/02/19","02:50",0.0,8.4,97.5,1010.0,245.9,0.6,1.0,228.5,0.00,8.1,7.8,"02:44:10",1
"23/02/19","03:00",0.2,8.5,97.6,1009.7,285.2,0.5,1.1,264.9,0.00,8.2,7.7,"02:56:48",1
"23/02/19","03:10",0.0,8.5,97.6,1009.5,289.3,0.3,0.9,266.6,0.00,8.2,7.8,"03:05:02",1
"23/02/19","03:20",0.2,8.5,97.7,1009.3,291.4,0.8,1.4,306.1,0.00,8.2,7.8,"03:15:52",1
"23/02/19","03:30",0.0,8.5,97.7,1008.8,313.0,1.1,1.7,313.4,0.00,8.2,7.8,"03:28:12",1
"23/02/19","03:40",0.0,8.5,97.8,1008.8,313.8,1.1,1.3,300.1,0.00,8.2,7.8,"03:34:32",1
"23/02/19","03:50",0.2,8.6,97.9,1008.3,307.5,1.1,1.4,313.4,0.00,8.3,7.7,"03:48:08",1
"23/02/19","04:00",0.0,8.6,97.9,1008.6,309.0,1.1,1.8,311.3,0.00,8.3,8.0,"03:55:22",1
"23/02/19","04:10",0.0,8.5,98.0,1008.1,307.2,0.5,1.1,313.2,0.00,8.2,7.9,"04:00:40",1
"23/02/19","04:20",0.0,8.7,97.5,1007.6,311.7,0.7,1.4,313.7,0.00,8.4,7.6,"04:19:40",1
"23/02/19","04:30",0.2,8.6,98.0,1007.8,336.6,0.6,1.1,274.4,0.00,8.3,7.5,"04:21:04",1
"23/02/19","04:40",0.0,8.7,97.6,1007.6,332.9,0.8,1.8,329.7,0.00,8.4,7.9,"04:37:36",1
"23/02/19","04:50",0.2,8.6,98.1,1007.6,296.0,0.7,1.6,257.6,0.00,8.4,8.1,"04:49:40",1
"23/02/19","05:00",0.0,8.8,97.7,1007.4,272.8,1.0,1.6,298.6,0.00,8.5,7.8,"04:56:22",1
"23/02/19","05:10",0.0,8.7,98.2,1007.1,315.1,0.7,1.4,348.1,0.00,8.5,7.7,"05:09:10",1
"23/02/19","05:20",0.0,8.8,97.7,1007.4,325.0,0.8,1.4,316.4,0.00,8.5,7.8,"05:10:18",1
"23/02/19","05:30",0.2,8.7,98.2,1006.7,298.0,1.0,1.6,315.9,0.00,8.5,7.9,"05:20:18",1
"23/02/19","05:40",0.0,8.9,97.8,1007.1,273.6,0.6,1.0,273.6,0.00,8.6,7.9,"05:34:00",1
"23/02/19","05:50",0.0,8.7,98.3,1006.4,321.5,0.8,1.2,323.5,0.00,8.5,7.9,"05:47:42",1
"23/02/19","06:00",0.2,8.9,97.9,1006.7,312.2,1.0,1.2,279.0,0.00,8.6,7.9,"05:52:26",1
"23/02/19","06:10",0.2,8.9,98.3,1006.2,311.6,1.3,1.8,302.9,0.00,8.7,8.0,"06:07:40",1
"23/02/19","06:20",0.2,9.0,97.9,1006.4,276.6,0.3,1.2,271.7,0.00,8.7,7.8,"06:12:22",1
"23/02/19","06:30",0.0,9.0,98.4,1006.2,271.8,0.7,1.4,246.5,0.00,8.8,8.1,"06:21:44",1
"23/02/19","06:40",0.2,9.2,97.9,1006.0,309.3,1.1,1.7,347.3,0.00,8.9,8.0,"06:34:34",1
"23/02/19","06:50",0.2,9.0,98.4,1005.7,274.4,1.1,1.7,259.6,0.00,8.8,7.9,"06:46:20",1
"23/02/19","07:00",0.2,9.3,98.0,1005.7,309.0,0.7,1.4,318.7,0.00,9.0,8.0,"06:51:56",1
"23/02/19","07:10",0.2,9.4,98.0,1005.7,276.2,0.7,1.6,262.4,0.00,9.1,8.0,"07:02:30",1
"23/02/19","07:20",0.4,9.4,98.0,1005.5,302.8,1.0,1.6,258.4,0.00,9.1,7.8,"07:12:08",1
"23/02/19","07:30",0.2,9.5,97.9,1005.2,256.4,0.8,2.0,273.0,0.00,9.2,8.0,"07:22:28",1
"23/02/19","07:40",0.0,9.5,98.5,1005.5,312.8,1.3,2.7,340.4,0.00,9.3,7.8,"07:35:12",1
"23/02/19","07:50",0.2,9.7,98.0,1005.2,317.2,1.0,1.8,264.7,0.00,9.4,8.0,"07:49:22",1
"23/02/19","08:00",0.2,9.9,97.9,1005.0,311.3,1.1,2.2,312.4,0.00,9.6,8.2,"07:57:00",1
"23/02/19","08:10",0.2,9.8,98.5,1005.2,311.7,1.0,1.8,312.2,0.00,9.6,8.0,"08:02:58",1
"23/02/19","08:20",0.4,10.0,98.1,1005.2,317.8,1.0,1.7,333.2,0.00,9.8,7.9,"08:17:18",1
"23/02/19","08:30",0.4,10.1,98.0,1005.5,277.6,1.0,1.7,339.1,0.00,9.8,7.9,"08:24:38",1
"23/02/19","08:40",0.2,10.2,98.1,1005.5,317.9,1.2,2.4,300.9,0.00,10.0,7.8,"08:35:36",1
"23/02/19","08:50",0.2,10.5,98.1,1005.5,318.4,1.6,3.2,323.4,0.00,10.3,8.0,"08:40:42",1
"23/02/19","09:00",0.4,10.7,98.1,1005.7,261.7,1.1,1.4,232.7,0.00,10.5,8.2,"08:53:10",1
"23/02/19","09:10",0.6,11.6,98.2,1006.0,265.2,1.8,3.9,289.4,0.00,11.4,8.1,"09:01:42",1
"23/02/19","09:20",0.6,13.2,97.7,1006.0,299.6,2.1,3.3,266.1,0.00,12.9,8.1,"09:12:32",1
"23/02/19","09:30",0.2,13.6,97.9,1006.0,303.4,2.3,4.4,317.0,0.00,13.3,8.1,"09:26:10",1
"23/02/19","09:40",0.4,13.6,97.9,1006.0,284.7,1.7,2.5,268.9,0.01,13.3,8.1,"09:32:04",1
"23/02/19","09:50",0.2,13.5,98.0,1005.7,302.5,2.7,5.6,324.8,0.02,13.2,8.1,"09:47:16",1
"23/02/19","10:00",0.0,13.6,97.5,1005.7,292.8,2.6,3.9,301.4,0.04,13.3,8.2,"09:57:06",1
"23/02/19","10:10",0.0,13.5,97.9,1005.7,304.0,2.6,4.0,281.0,0.03,13.2,8.2,"10:08:40",1
"23/02/19","10:20",0.0,13.4,97.9,1006.0,312.4,3.0,4.4,312.4,0.03,13.1,8.3,"10:13:14",1
"23/02/19","10:30",0.0,13.5,97.7,1006.0,310.9,3.4,4.9,325.4,0.04,13.2,8.3,"10:28:24",1
"23/02/19","10:40",0.2,13.6,97.7,1006.0,312.5,3.0,4.9,333.3,0.07,13.3,8.3,"10:37:32",1
"23/02/19","10:50",0.0,13.7,97.6,1005.7,312.4,3.4,5.6,289.9,0.14,13.4,8.3,"10:40:24",1
"23/02/19","11:00",0.0,13.7,97.4,1006.2,300.9,3.2,5.8,316.3,0.11,13.3,8.7,"10:51:12",1
"23/02/19","11:10",0.0,13.8,97.3,1006.0,295.7,2.8,4.5,332.4,0.11,13.4,8.6,"11:01:28",1
"23/02/19","11:20",0.0,13.8,97.1,1006.0,294.7,2.6,4.9,324.3,0.11,13.4,8.3,"11:17:28",1
"23/02/19","11:30",0.0,14.1,97.0,1005.5,314.6,2.8,4.3,323.0,0.17,13.7,8.5,"11:29:58",1
"23/02/19","11:40",0.0,14.1,96.6,1005.5,290.5,2.5,4.4,327.7,0.17,13.6,8.7,"11:37:06",1
"23/02/19","11:50",0.0,14.0,96.0,1006.0,296.5,2.7,4.5,342.9,0.10,13.4,8.5,"11:48:48",1
"23/02/19","12:00",0.0,14.1,95.5,1005.7,296.5,3.1,5.9,307.1,0.07,13.4,8.6,"11:50:56",1
"23/02/19","12:10",0.0,14.2,95.2,1005.5,300.2,2.5,4.1,344.0,0.08,13.5,8.7,"12:00:48",1
"23/02/19","12:20",0.2,14.2,94.3,1005.2,298.7,2.7,6.5,342.6,0.07,13.3,8.7,"12:15:04",1
"23/02/19","12:30",0.0,14.2,93.6,1005.2,287.1,2.7,4.8,270.5,0.02,13.2,8.6,"12:28:16",1
"23/02/19","12:40",0.0,14.1,92.8,1005.2,289.0,2.8,5.2,338.6,0.02,13.0,9.0,"12:38:00",1
"23/02/19","12:50",0.0,14.2,91.9,1005.0,284.2,2.7,6.8,322.1,0.01,12.9,8.7,"12:42:56",1
"23/02/19","13:00",0.0,14.2,91.1,1004.8,280.2,2.2,3.4,291.6,0.02,12.8,8.7,"12:52:56",1
"23/02/19","13:10",0.0,14.3,90.1,1004.8,269.7,2.5,7.3,239.7,0.01,12.7,8.9,"13:00:56",1
"23/02/19","13:20",0.0,14.3,89.5,1004.5,254.6,2.3,5.5,239.6,0.01,12.6,8.9,"13:15:04",1
"23/02/19","13:30",0.0,14.2,88.7,1004.5,264.2,3.2,7.7,261.7,0.00,12.4,8.8,"13:28:40",1
"23/02/19","13:40",0.0,14.1,88.2,1004.3,272.5,2.6,6.2,254.2,0.00,12.2,8.9,"13:32:24",1
"23/02/19","13:50",0.4,13.8,88.1,1004.5,316.9,2.8,5.8,318.6,0.00,11.9,9.0,"13:49:52",1
"23/02/19","14:00",0.0,12.5,88.1,1005.2,332.7,4.0,8.5,312.8,0.00,10.6,9.0,"13:50:58",1
"23/02/19","14:10",0.2,11.9,87.7,1005.2,310.5,4.7,10.5,310.2,0.00,10.0,9.0,"14:01:24",1
"23/02/19","14:20",0.0,11.6,87.6,1004.8,309.7,4.2,7.7,339.6,0.00,9.7,8.9,"14:17:56",1
"23/02/19","14:30",0.2,11.5,88.1,1005.0,295.7,2.8,6.4,342.5,0.00,9.6,8.9,"14:24:10",1
"23/02/19","14:40",0.0,11.3,88.9,1005.0,277.0,2.5,4.1,301.6,0.01,9.6,9.1,"14:30:10",1
"23/02/19","14:50",0.0,11.1,89.8,1005.7,286.3,2.3,3.4,276.6,0.02,9.5,9.0,"14:48:04",1
"23/02/19","15:00",0.0,11.0,90.5,1005.7,305.7,2.3,3.7,318.1,0.00,9.5,9.2,"14:59:58",1
"23/02/19","15:10",0.2,10.9,90.8,1005.2,303.2,3.0,5.5,317.6,0.01,9.5,9.0,"15:04:10",1
"23/02/19","15:20",0.0,10.9,90.8,1005.2,285.4,2.2,3.1,305.5,0.04,9.5,8.9,"15:10:12",1
"23/02/19","15:30",0.0,11.1,90.8,1005.0,274.2,2.2,3.2,292.4,0.08,9.7,9.0,"15:22:24",1
"23/02/19","15:40",0.0,11.2,90.4,1005.0,284.6,2.1,3.4,315.2,0.11,9.7,9.2,"15:35:04",1
"23/02/19","15:50",0.0,11.4,90.0,1005.5,282.9,2.3,3.6,292.1,0.11,9.9,9.1,"15:44:32",1
"23/02/19","16:00",0.0,11.6,88.7,1005.5,288.5,2.3,4.4,317.8,0.11,9.8,9.2,"15:53:28",1
"23/02/19","16:10",0.0,12.0,87.5,1006.0,294.2,2.1,3.1,306.6,0.14,10.0,9.2,"16:02:24",1
"23/02/19","16:20",0.0,12.0,85.8,1006.0,285.8,2.1,3.4,344.4,0.13,9.7,9.2,"16:15:08",1
"23/02/19","16:30",0.0,12.0,84.3,1005.7,319.7,3.4,6.3,303.6,0.09,9.5,9.0,"16:26:44",1
"23/02/19","16:40",0.0,12.0,82.3,1006.2,327.5,4.2,7.9,347.3,0.10,9.1,9.2,"16:39:28",1
"23/02/19","16:50",0.0,12.4,80.2,1006.7,314.6,3.9,6.3,327.5,0.18,9.1,9.2,"16:44:50",1
"23/02/19","17:00",0.0,12.3,77.4,1006.4,324.9,5.4,9.5,324.2,0.13,8.5,9.1,"16:54:22",1
"23/02/19","17:10",0.0,12.4,74.1,1006.2,320.1,5.5,11.6,347.4,0.10,8.0,9.3,"17:02:04",1
"23/02/19","17:20",0.0,12.1,72.7,1006.4,316.2,4.7,7.1,290.1,0.03,7.4,9.3,"17:16:10",1
"23/02/19","17:30",0.0,12.1,73.8,1006.2,335.0,3.4,7.8,326.7,0.03,7.6,9.2,"17:22:50",1
"23/02/19","17:40",0.0,11.9,73.6,1006.4,330.1,3.6,8.5,344.5,0.02,7.4,9.2,"17:38:10",1
"23/02/19","17:50",0.0,11.9,73.0,1006.4,319.6,4.6,8.2,343.0,0.02,7.3,9.2,"17:41:20",1
"23/02/19","18:00",0.0,11.7,73.8,1006.7,323.8,4.5,8.2,306.3,0.01,7.2,9.2,"17:50:08",1
"23/02/19","18:10",0.0,11.5,74.9,1006.9,330.3,3.5,5.5,338.8,0.00,7.2,9.2,"18:04:16",1
"23/02/19","18:20",0.0,11.2,75.5,1007.1,317.3,4.0,6.6,319.4,0.00,7.1,9.2,"18:12:34",1
"23/02/19","18:30",0.0,11.0,76.2,1007.1,318.4,3.1,4.9,332.1,0.00,7.0,9.2,"18:26:52",1
"23/02/19","18:40",0.0,10.7,77.1,1007.1,304.4,2.5,3.7,319.5,0.00,6.9,9.1,"18:30:08",1
"23/02/19","18:50",0.0,10.3,77.8,1007.1,303.9,2.2,4.0,312.5,0.00,6.6,9.2,"18:49:30",1
"23/02/19","19:00",0.0,10.5,76.6,1007.4,318.2,3.9,5.8,311.7,0.00,6.6,9.1,"18:50:48",1
"23/02/19","19:10",0.0,10.3,76.7,1007.6,296.0,2.1,3.3,331.5,0.00,6.4,9.4,"19:03:36",1
"23/02/19","19:20",0.0,10.2,77.1,1007.4,312.6,3.0,6.8,312.5,0.00,6.4,8.9,"19:15:04",1
"23/02/19","19:30",0.0,10.1,77.5,1007.6,287.8,1.8,3.1,312.8,0.00,6.4,8.9,"19:24:08",1
"23/02/19","19:40",0.0,10.0,77.7,1007.6,310.1,3.0,5.6,351.9,0.00,6.3,9.0,"19:36:24",1
"23/02/19","19:50",0.0,10.0,77.7,1007.6,299.6,2.3,5.5,352.6,0.00,6.3,9.1,"19:48:56",1
"23/02/19","20:00",0.0,10.0,77.7,1007.8,297.3,1.7,3.9,338.6,0.00,6.3,9.1,"19:50:08",1
"23/02/19","20:10",0.0,9.8,78.1,1007.6,326.7,1.0,2.1,341.1,0.00,6.2,9.0,"20:00:24",1
"23/02/19","20:20",0.0,9.4,79.2,1007.8,319.0,0.6,2.4,303.7,0.00,6.0,9.0,"20:19:52",1
"23/02/19","20:30",0.0,9.1,80.2,1007.6,314.1,1.3,3.1,319.6,0.00,5.9,9.0,"20:20:16",1
"23/02/19","20:40",0.0,8.6,81.5,1007.8,295.9,1.2,2.1,341.0,0.00,5.7,9.0,"20:32:48",1
"23/02/19","20:50",0.0,8.2,82.9,1008.1,306.3,1.5,2.2,317.7,0.00,5.5,8.9,"20:44:48",1
"23/02/19","21:00",0.0,8.0,84.1,1007.6,270.8,0.7,1.4,262.8,0.00,5.5,8.9,"20:58:56",1
"23/02/19","21:10",0.0,8.1,85.3,1007.8,343.0,1.2,3.3,325.7,0.00,5.8,9.0,"21:05:20",1
"23/02/19","21:20",0.0,7.8,86.5,1008.1,311.5,1.8,2.7,323.2,0.00,5.7,8.9,"21:18:48",1
"23/02/19","21:30",0.0,7.4,87.6,1008.6,299.3,1.8,3.5,319.4,0.00,5.5,8.9,"21:23:12",1
"23/02/19","21:40",0.0,7.4,88.6,1008.1,312.3,1.7,2.6,316.1,0.00,5.7,8.8,"21:30:56",1
"23/02/19","21:50",0.0,7.3,89.4,1008.3,273.2,1.3,2.7,315.7,0.00,5.7,8.7,"21:46:32",1
"23/02/19","22:00",0.0,7.6,90.1,1009.0,346.6,0.7,1.9,311.2,0.00,6.1,8.7,"21:50:08",1
"23/02/19","22:10",0.0,7.8,90.5,1008.6,139.8,0.6,1.3,147.7,0.00,6.4,9.0,"22:01:12",1
"23/02/19","22:20",0.0,7.7,90.7,1008.6,294.3,1.6,2.7,311.2,0.00,6.3,9.0,"22:17:44",1
"23/02/19","22:30",0.0,7.4,90.9,1008.8,305.4,1.7,2.5,311.0,0.00,6.1,8.7,"22:20:32",1
"23/02/19","22:40",0.0,7.2,91.4,1008.8,327.8,2.1,3.7,315.8,0.00,5.9,8.7,"22:35:44",1
"23/02/19","22:50",0.0,7.0,91.8,1009.0,314.7,2.0,2.7,318.9,0.00,5.8,8.6,"22:44:48",1
"23/02/19","23:00",0.0,7.3,92.2,1009.0,317.8,2.8,4.5,329.0,0.00,6.2,8.6,"22:56:24",1
"23/02/19","23:10",0.0,8.0,91.8,1009.3,299.4,3.2,4.7,343.3,0.00,6.8,8.3,"23:04:48",1
"23/02/19","23:20",0.0,8.2,91.2,1009.3,299.0,3.2,5.6,320.4,0.00,6.9,8.6,"23:12:16",1
"23/02/19","23:30",0.0,8.3,90.7,1009.5,288.1,3.1,4.0,274.3,0.00,6.9,8.4,"23:21:12",1
"23/02/19","23:40",0.0,8.3,90.1,1009.5,288.8,3.1,6.0,263.7,0.00,6.8,8.6,"23:36:32",1
"23/02/19","23:50",0.0,8.3,89.2,1009.5,287.4,3.0,4.7,291.6,0.00,6.7,8.5,"23:46:32",1
"23/02/19","24:00",0.0,8.2,88.4,1010.0,287.5,2.8,4.7,317.7,0.00,6.4,8.6,"23:54:16",1
